User: anonymous   Login
Location: Unspecified
(0.0000°N, 0.0000°E)
Time: 07:01:54
(UTC+00:00)
Language:

Vela 3B - Orbit

View from above orbital plane
View from above orbital plane
View from above satellite
View from above satellite

Ground track
Ground track

The orbit data is extracted from the following two-line orbital elements,

1 01459U 65058B   14300.46401424 -.00000639  00000-0  00000+0 0   131
2 01459 002.4404 029.7770 4447438 305.5263 002.3983 00.21408827 38946
Epoch (UTC): 27 October 2014 11:08:10
Eccentricity: 0.4447438
inclination: 2.4404°
perigee height: 59160 km
apogee height: 164148 km
right ascension of ascending node: 29.7770°
argument of perigee: 305.5263°
revolutions per day: 0.21408827
mean anomaly at epoch: 2.3983°
orbit number at epoch: 3894

The dashed part of the orbit path shows where the satellite is in the earth's shadow,  

DLR